Location: Unspecified
(0.0000°N, 0.0000°E)
Time: 18:54:30
(UTC+00:00)

A-11 Canister half - Pass Details

Date: 26 November 2019
Orbit: 1526 x 1683 km, 47.3° (Epoch: 05 December)

Event Time Altitude Azimuth Distance (km) Brightness Sun altitude
Rises 07:45:04 0° 236° (SW) 4,896 11.4 27.4°
Reaches altitude 10° 07:48:25 10° 242° (WSW) 3,921 10.9 28.1°
Maximum altitude 07:57:45 43° 310° (NW) 2,225 9.8 30.3°
Drops below altitude 10° 08:07:09 10° 19° (NNE) 3,926 11.2 32.4°
Sets 08:10:33 0° 26° (NNE) 4,902 11.7 33.2°
